Regional Weather Roundup
Issued by NWS

Home | Current Version | Previous Version | Text Only | Print | Product List | Glossary On
Versions: 1 2 3 4 5 6 7 8 9 10 11 12 13 14 15 16 17 18 19 20 21 22 23 24 25 26 27 28 29 30 31 32 33 34 35 36 37 38 39 40 41 42 43 44 45 46 47 48 49 50
000
ASUS46 KLOX 260912
RWRCA

SOUTHERN CALIFORNIA WEATHER ROUNDUP
NATIONAL WEATHER SERVICE OXNARD CALIFORNIA
200 AM PDT SAT JUL 26 2014

NOTE: "FAIR" INDICATES FEW OR NO CLOUDS BELOW 12,000 FEET WITH NO
SIGNIFICANT WEATHER AND/OR OBSTRUCTIONS TO VISIBILITY.

  -  STATIONS PRECEEDED BY AN ASTERISK (*) ARE NOT NWS OR FAA
     STATIONS AND ARE NOT SUBJECT TO NWS AND FAA QUALITY CONTROL.

CAZ041-042-087-261000-
LA AND ORANGE COUNTY COASTAL AREAS


CITY           SKY/WX    TMP DP  RH WIND       PRES   REMARKS
L.A. DOWNTOWN  PTCLDY    70  64  81 W3        29.91S
L.A. AIRPORT   FOG       66  64  94 W6        29.92S VSB 1
LONG BEACH     PTCLDY    70  64  81 CALM      29.92S

CITY           SKY/WX    TMP DP  RH WIND       PRES   REMARKS
AVALON           N/A     70 N/A N/A CALM        N/A
FULLERTON      CLEAR     72  64  76 SE3       29.91S
*GETTY CENTER    N/A     68  59  73 NE3         N/A
HAWTHORNE      CLOUDY    67  65  93 CALM      29.92S
*LEO CARRILLO    N/A     63  62  95 W2          N/A
*LOS ALAMITOS  FAIR      67  64  91 S3        29.92S
*REDONDO BEACH   N/A     65  63  90 W1        29.92S
SANTA ANA      CLEAR     72  64  76 SW3       29.92S
STA MONICA APT CLOUDY    68  64  87 CALM      29.92S FOG
*UCLA            N/A     66  63  88 CALM      29.90F

$$

CAZ547-548-048-261000-
LA COUNTY VALLEYS AND INLAND EMPIRE


CITY           SKY/WX    TMP DP  RH WIND       PRES   REMARKS
BURBANK        PTCLDY    73  60  63 SE5       29.92S
VAN NUYS       PTCLDY    73  60  63 SE3       29.93S

CITY           SKY/WX    TMP DP  RH WIND       PRES   REMARKS
CORONA AIRPORT SUNNY     70  64  81 W5        29.93S
CHINO          CLEAR     69  64  84 S3        29.94S
MARCH AFB      PTCLDY    71  60  68 W5        29.96F
*NORTHRIDGE      N/A     72  59  64 SE1         N/A
ONTARIO        PTCLDY    73  62  68 CALM      29.94R
*PASADENA        N/A     72  64  78 CALM        N/A
RIVERSIDE      CLEAR     74  62  66 CALM      29.93F
SAN BERNARDINO NOT AVBL
*SAN GABRIEL     N/A     72  60  67 SW3       29.88S
*SAN RAFAEL HI   N/A     69  64  84 NW3         N/A
*SAUGUS          N/A     70  60  70 CALM        N/A
*WHITEMAN AP   NOT AVBL
*WHITTIER HILL   N/A     66  66 100 SE2         N/A
*WOODLAND HILL   N/A     70  59  68 S1          N/A

$$

CAZ054-055-261000-
LA AND SAN BERNARDINO COUNTY MOUNTAINS


CITY           SKY/WX    TMP DP  RH WIND       PRES   REMARKS
*BIG BEAR AIRP MOSUNNY   54  30  40 CALM      30.30F
MT WILSON NWS    N/A     68  27  21 MISG        N/A
SANDBERG       PTCLDY    73  46  38 W8        30.12F
*WARM SPRINGS    N/A     71  40  32 SW8         N/A

$$

CAZ028-029-059-060-099-261000-
ANTELOPE VALLEY AND SURROUNDING AREAS


CITY           SKY/WX    TMP DP  RH WIND       PRES   REMARKS
LANCASTER      PTCLDY    79  41  25 SW13      29.96F
PALMDALE       PTCLDY    77  40  26 S10       29.98F
*POPPY PARK      N/A     79  41  25 SW13        N/A

CITY           SKY/WX    TMP DP  RH WIND       PRES   REMARKS
29 PALMS       PTCLDY    83  41  22 NW6       29.99S
BARSTOW/DAGGET MOCLDY    85  42  22 W14       29.91F
BISHOP         CLEAR     66  28  24 CALM      30.05R
CHINA LAKE     PTCLDY    84  42  22 S12       29.88S
EDWARDS AFB    PTCLDY    79  41  25 SW13      29.94R
MOJAVE         FAIR      82  41  23 W16       29.96F
NEEDLES        CLOUDY    94  60  32 SW7       29.85F HX  94
VICTORVILLE    CLEAR     75  45  33 SW3       30.00S

$$

CAZ039-040-261000-
VENTURA AND SANTA BARBARA COUNTY COAST


CITY           SKY/WX    TMP DP  RH WIND       PRES   REMARKS
CAMARILLO      CLOUDY    65  61  87 CALM      29.91F
NWS OXNARD       N/A     64  61  89 CALM      29.91S
OXNARD AIRPORT CLOUDY    63  62  97 NW5       29.91F FOG
*POINT MUGU    CLOUDY    67  62  84 CALM      29.92S
SBA APT/GOLETA CLOUDY    63  61  93 CALM      29.91F FOG
*SANTA BARBARA   N/A     65  60  82 CALM      29.98F
*VENTURA         N/A     65  62  90 CALM      29.96S

$$

CAZ044-045-261000-
VENTURA COUNTY VALLEYS


CITY           SKY/WX    TMP DP  RH WIND       PRES   REMARKS
*SIMI VALLEY     N/A     67  62  85 CALM      29.85F
*OJAI            N/A     63  58  83 CALM      29.84F
*FILLMORE        N/A     63  58  86 CALM      29.82R

$$

CAZ053-261000-
VENTURA COUNTY MOUNTAINS


CITY           SKY/WX    TMP DP  RH WIND       PRES   REMARKS
*LOCKWOOD VLY    N/A    N/A N/A N/A MISG        N/A
*ROSE VALLEY     N/A     55  43  62 MISG        N/A

$$

CAZ034-035-036-261000-
CENTRAL COAST AND SANTA YNEZ VALLEY


CITY           SKY/WX    TMP DP  RH WIND       PRES   REMARKS
SAN LUIS OBISP CLOUDY    59  58  96 CALM      29.92F
SANTA MARIA    CLOUDY    62  58  86 CALM      29.93S HAZE

CITY           SKY/WX    TMP DP  RH WIND       PRES   REMARKS
*CAL POLY SLO    N/A     57  57 100 CALM        N/A
*CAMBRIA         N/A     57  56  97 CALM      29.82S
*LOMPOC          N/A     61  55  82 MISG      29.93S
*PISMO BEACH     N/A     60  59  96 CALM      29.93S

$$

CAZ037-038-051-261000-
SAN LUIS OBISPO COUNTY INTERIOR AND CUYAMA VALLEY


CITY           SKY/WX    TMP DP  RH WIND       PRES   REMARKS
*CUYAMA          N/A     69  53  55 E1        29.84S
PASO ROBLES    CLEAR     67  51  56 NW5       29.92S

$$

CAZ032-033-061-261000-
SOUTHERN DESERTS


CITY           SKY/WX    TMP DP  RH WIND       PRES   REMARKS
BLYTHE         PTCLDY    92  65  40 S7        29.83S HX  94
IMPERIAL       MOCLDY    90  68  48 E8        29.77S HX  94
PALM SPRINGS   PTCLDY    83  64  52 S3        29.85R
THERMAL        PTCLDY    87  59  38 W5        29.78S

$$

ELSEWHERE ACROSS THE WESTERN UNITED STATES AND MEXICO


CITY           SKY/WX    TMP DP  RH WIND       PRES   REMARKS
DENVER, CO     PTCLDY    66  51  58 SW10      30.07F
GRAND CANYON,  CLOUDY    66  48  52 SE5       30.31F
HONOLULU, HI   PTCLDY    79  66  65 NE10      29.99S
KAHULUI, MAUI  PTCLDY    75  68  78 NE14      29.99
LAKE TAHOE, CA CLEAR     49  37  63 S5        30.25R
LAS VEGAS, NV  CLOUDY    89  59  36 S22G29    29.87S
MAMMOTH LAKES, FAIR      46  28  49 CALM      30.30S
MEXICO CITY, M PTCLDY    57  52  82 N5        30.39S
PHOENIX, AZ    CLOUDY    88  63  43 S6        29.89S
PORTLAND, OR   CLEAR     62  54  74 N5        30.10S
RENO, NV       PTCLDY    70  37  29 CALM      30.12S
SALT LAKE CITY CLEAR     73  45  36 NW6       30.03R
SAN DIEGO, CA  MOCLDY    70  64  81 CALM      29.92F
SAN FRANCISCO, CLEAR     64  57  78 NW8       29.88S
SAN JOSE, CA   CLEAR     69  49  48 SE5       29.88S
SEATTLE, WA    CLEAR     59  52  77 N3        30.13R
TIJUANA, MEX   PTCLDY    68  63  83 N5        29.95F

$$

STATION/POSITION TIME  TEMP    WIND        PRES    VSBY  WAVE
                       AIR SEA DIR/SP/G                  HT/PER
                 (UTC) (F)     (DEG/KT/KT) (MB)    (MI)  (FT/S)
POINT ARGUELLO B NOT AVBL
WEST SANTA BARBA 0900   59 63  310/  8/ 10 1012.6F         5/10
POINT CONCEPTION NOT AVBL
EAST SANTA BARBA 0900   60 65  250/  4/  8 1013.3F
SANTA MONICA BAY 0900   65 69  350/  4/  6 1012.7F         2/15


USA.gov is the U.S. government's official web portal to all federal, state and local government web resources and services.